Regional Weather Roundup
Issued by NWS

Home | Current Version | Previous Version | Text Only | Print | Product List | Glossary On
Versions: 1 2 3 4 5 6 7 8 9 10 11 12 13 14 15 16 17 18 19 20 21 22 23 24 25 26 27 28 29 30 31 32 33 34 35 36 37 38 39 40 41 42 43 44 45 46 47 48 49 50
000
ASUS43 KDTX 301110
RWRMI
MICHIGAN HOURLY REGIONAL WEATHER ROUNDUP
NATIONAL WEATHER SERVICE DETROIT/PONTIAC MI
700 AM EDT THU JUL 30 2015

NOTE: "FAIR" INDICATES FEW OR NO CLOUDS BELOW 12,000 FEET WITH NO
SIGNIFICANT WEATHER AND/OR OBSTRUCTION TO VISIBILITY.

MIZ047>049-052>055-059>063-066>070-074>076-081>083-301200-
SOUTHEAST LOWER MICHIGAN

CITY           SKY/WX    TMP DP  RH WIND       PRES   REMARKS
ADRIAN         CLEAR     62  57  83 W5        29.99R
ALMA           CLEAR     64  59  84 SW6       29.93R
ANN ARBOR      CLEAR     62  57  83 W3        29.96R
BAD AXE        CLEAR     62  57  86 SW5       29.90R
CARO           CLEAR     60  57  91 SW3       29.91R
DETROIT CITY   CLEAR     67  57  70 W6        29.95R
DETROIT        PTCLDY    66  58  75 W6        29.96R
FLINT          CLEAR     65  58  78 SW6       29.94R
GROSSE ILE     CLEAR     66  59  77 W3        29.95R
HILLSDALE      CLEAR     63  60  89 W6        30.00R
HOWELL         CLEAR     61  58  87 W6        29.96R

CITY           SKY/WX    TMP DP  RH WIND       PRES   REMARKS
JACKSON        CLEAR     61  57  87 W7        29.98R
LAMBERTVILLE   CLEAR     64  58  81 CALM      29.98R
LANSING        CLEAR     65  57  75 W8        29.96R
LAPEER         FAIR      64  58  82 W3        29.94R
MASON          CLEAR     62  56  80 SW3       29.97R
MONROE         CLEAR     60  58  92 CALM      29.96R
MT. CLEMENS    CLEAR     65  58  79 SW7       29.92R
PONTIAC        CLEAR     64  58  80 SW6       29.94R
PORT HOPE        N/A     66  61  84 SW8       29.86R
PORT HURON     CLEAR     57  57 100 CALM      29.93R
TRI CITIES     CLEAR     62  57  83 W7        29.91R
MIDLAND        FAIR      64  56  75 SW5       29.90R
TROY           CLEAR     66  60  79 MISG      29.96R
SAGINAW HB     CLEAR     63  59  88 SW7       29.90R
$$
MIZ043>046-050>051-056>058-064>065-071>073-077>080-301200-
SOUTHWEST LOWER MICHIGAN

CITY           SKY/WX    TMP DP  RH WIND       PRES   REMARKS
BATTLE CREEK   CLEAR     66  59  78 W7        29.99R
BENTON HARBOR  CLEAR     70  63  78 W8        30.00R
BIG RAPIDS     CLEAR     64  56  74 W5        29.92R
COLDWATER      CLEAR     60  57  90 W5        30.00R
FREMONT        FAIR      65  58  77 W5        29.94R
HOLLAND        CLEAR     71  59  65 W9        29.98R
GRAND RAPIDS   CLEAR     65  58  78 W7        29.96R
IONIA          FAIR      63  58  83 SW7       29.95R
KALAMAZOO      CLEAR     66  58  75 SW7       30.00R
LUDINGTON      CLEAR     71  61  70 W8        29.92S
MARSHALL       CLEAR     60  57  89 CALM      29.98R
MOUNT PLEASANT CLEAR     66  57  72 W6        29.91R
MUSKEGON       CLEAR     71  52  50 W9        29.95R
SOUTH HAVEN    CLEAR     70  61  73 W6G16     29.99R
$$
MIZ016>042-301200-
NORTHERN LOWER MICHIGAN

CITY           SKY/WX    TMP DP  RH WIND       PRES   REMARKS
ALPENA         CLEAR     68  56  65 SW9       29.82R
BEAVER ISLAND  CLEAR     67  59  76 W14G20    29.81R
BELLAIRE       CLEAR     71  58  62 W7        29.85R
CADILLAC       CLEAR     63  56  80 W7        29.91R
CHARLEVOIX     PTCLDY    70  60  71 W17G23    29.85R
FRANKFORT      CLEAR     69  60  74 W10       29.88S
GAYLORD        CLEAR     67  58  72 W10       29.85R
GRAYLING       CLEAR     64  56  77 W8        29.87S
HARBOR SPRINGS CLEAR     69  62  79 W8        29.82R
HOUGHTON LAKE  CLEAR     67  58  72 W12       29.89R
MANISTEE       CLEAR     68  55  64 W14       29.90R
OSCODA         CLEAR     63  56  78 SW10      29.84S
PELLSTON       CLEAR     69  57  65 W13G20    29.80R
ROGERS CITY    CLEAR     67  58  72 SW9       29.80S
TRAVERSE CITY  CLEAR     71  56  58 W12       29.85R
$$
MIZ007>008-015-301200-
EASTERN UPPER MICHIGAN

CITY           SKY/WX    TMP DP  RH WIND       PRES   REMARKS
KINROSS        PTCLDY    66  57  72 W7        29.76R
MACKINAC ISLAN PTCLDY    69  58  66 W20G26    29.78R
MUNISING         N/A     67  54  63 S7        29.76R
$$
MIZ004>006-011>014-085-301200-
CENTRAL UPPER MICHIGAN

CITY           SKY/WX    TMP DP  RH WIND       PRES   REMARKS
MANISTIQUE     CLEAR     66  54  63 W8        29.79R
ESCANABA       CLEAR     64  54  68 W9        29.82R
MENOMINEE      CLEAR     64  52  63 W6        29.87S
SAWYER-GWINN   CLEAR     64  52  63 W13       29.80R
$$
MIZ001>003-009>011-084-301200-
WESTERN UPPER MICHIGAN

CITY           SKY/WX    TMP DP  RH WIND       PRES   REMARKS
IRON MOUNTAIN  CLEAR     65  53  65 W7        29.85R
HOUGHTON       CLEAR     65  53  65 W24G37    29.77R
COPPER HARBOR    N/A     68  52  56 NW16G31   29.72R
IRONWOOD       CLEAR     63  54  72 W14       29.87R
$$

ABBREVIATIONS USED IN REMARKS
   TC - TEMPERATURE IN CELSIUS
  WCI - WIND CHILL INDEX
   HX - HEAT INDEX
  VSB - VISIBILITY




USA.gov is the U.S. government's official web portal to all federal, state and local government web resources and services.